CST,Max TemperatureF,Mean TemperatureF,Min TemperatureF,Max Dew PointF,MeanDew PointF,Min DewpointF,Max Humidity, Mean Humidity, Min Humidity, Max Sea Level PressureIn, Mean Sea Level PressureIn, Min Sea Level PressureIn, Max VisibilityMiles, Mean VisibilityMiles, Min VisibilityMiles, Max Wind SpeedMPH, Mean Wind SpeedMPH, Max Gust SpeedMPH,PrecipitationIn, CloudCover, Events, WindDirDegrees
2012-12-1,77,70,63,63,61,59,93,78,54,30.13,30.07,30.00,10,9,6,18,10,26,0.00,5,,185
2012-12-2,78,70,63,64,62,58,87,77,56,30.17,30.09,30.04,10,9,7,14,10,23,0.00,5,,183
2012-12-3,73,68,62,64,61,59,90,81,65,30.08,30.02,29.96,10,9,4,16,9,24,0.00,5,Rain,190
2012-12-4,75,66,55,58,49,27,93,65,32,30.25,30.15,30.02,10,9,8,12,4,22,0.00,3,,343
2012-12-5,72,58,44,43,31,23,71,38,18,30.27,30.17,30.05,10,10,10,9,5,,0.00,0,,29
2012-12-6,73,60,48,52,48,41,100,75,35,30.03,29.95,29.81,10,6,0,14,4,22,0.00,3,Fog,184
2012-12-7,72,63,54,59,56,49,97,85,61,29.94,29.86,29.80,10,6,1,10,3,,0.00,5,,187
2012-12-8,77,67,57,64,60,54,97,83,54,29.94,29.87,29.79,10,6,1,12,2,,0.00,6,,187
2012-12-9,75,63,50,64,57,35,93,76,40,29.98,29.86,29.77,10,6,2,17,5,25,0.00,6,Thunderstorm,177
2012-12-10,50,42,35,30,15,10,50,35,23,30.18,30.11,30.01,10,10,10,26,15,34,0.00,2,,348
2012-12-11,52,40,28,17,14,12,61,38,21,30.24,30.16,30.11,10,10,10,7,4,,0.00,0,,41
2012-12-12,60,44,27,21,17,11,56,38,20,30.33,30.26,30.20,10,10,10,9,2,,0.00,0,,132
2012-12-13,64,50,35,45,32,21,70,52,38,30.30,30.24,30.17,10,10,4,15,3,21,0.00,2,,162
2012-12-14,66,60,53,63,54,36,97,84,45,30.15,30.00,29.86,10,6,1,14,7,26,0.00,8,Rain,165
2012-12-15,70,64,57,63,51,36,93,69,31,29.97,29.92,29.86,10,8,1,12,3,16,0.12,4,Rain,287
2012-12-16,68,60,52,47,43,34,67,55,35,29.88,29.83,29.76,10,10,10,10,3,,0.00,3,,295
2012-12-17,70,58,45,35,29,20,61,42,16,29.97,29.91,29.86,10,10,10,16,7,23,0.00,0,,289
2012-12-18,82,60,39,55,34,24,78,45,12,29.92,29.85,29.78,10,10,10,14,3,20,0.00,0,,184
2012-12-19,79,70,62,62,58,17,93,71,17,29.90,29.74,29.62,10,8,4,24,13,36,0.00,5,,195
2012-12-20,59,46,32,19,9,-4,42,25,9,30.49,30.30,29.97,10,10,5,26,18,46,0.00,1,Rain,328
2012-12-21,62,44,27,14,10,6,53,29,11,30.52,30.43,30.35,10,10,10,9,3,,0.00,0,,200
2012-12-22,64,49,34,49,36,13,77,54,34,30.36,30.22,30.09,10,10,10,21,5,32,0.00,3,,192
2012-12-23,70,62,53,56,51,46,93,72,42,30.08,29.97,29.88,10,10,8,13,4,,0.00,2,,208
2012-12-24,64,53,42,47,29,22,86,44,20,30.04,29.90,29.75,10,10,10,9,4,,0.00,1,,48
2012-12-25,59,44,28,51,33,17,84,61,38,30.19,29.83,29.56,10,9,7,29,11,44,0.00,6,Rain,321
2012-12-26,41,32,24,20,16,13,66,57,40,30.29,30.21,30.12,10,10,10,23,13,31,0.00,1,,353
2012-12-27,45,36,28,42,34,20,97,83,59,30.12,29.94,29.84,10,5,1,8,4,,0.00,6,,120
2012-12-28,54,44,34,43,37,22,97,80,52,30.26,29.97,29.82,10,6,1,21,6,29,0.00,4,,337
2012-12-29,51,40,30,20,18,16,64,44,26,30.46,30.39,30.25,10,10,10,15,8,22,0.00,0,,3
2012-12-30,44,36,28,33,23,18,67,55,40,30.45,30.34,30.17,10,10,10,10,5,,0.00,3,Rain,107
2012-12-31,57,50,44,56,50,38,100,94,73,30.18,30.03,29.96,10,3,0,15,4,28,0.00,8,Fog-Rain,115